ASTEX 1

Last updated on Fri Jul 11 2025 00:02:12 GMT+0000 (Coordinated Universal Time)

1 05560U 71089A 25191.62473875 .00000324 00000+0 83072-4 0 9993 2 05560 92.7211 73.4586 0015697 173.5802 186.5608 14.50420965827217
UTC large
Height (km)
Speed (km/s)
/
Latitude / Longitude
Inclination (degrees)
Orbital Period (minutes)
Azimuth
Elevation
Range (km)
Doppler Factor

Next 0 passes for location: London (51.5072 / 0.1276)

Sorry there are no passes over London.